Location: Unspecified
(0.0000°N, 0.0000°E)
Time: 00:24:04
(UTC+00:00)

ATLAS 5 CENTAUR DEB - Pass Details

Date: 22 February 2026
Orbit: 7343 x 34659 km, 20.8° (Epoch: 7 March)

Event Time Altitude Azimuth Distance (km) Brightness Sun altitude
Rises 21:16:39 0° 248° (WSW) 16,669 ? -44.9°
Reaches altitude 10° 21:28:40 10° 248° (WSW) 17,235 ? -47.8°
Enters shadow 02:26:35 40° 285° (WNW) 36,631 ? -55.4°
Exits shadow 03:58:32 32° 290° (WNW) 35,959 ? -33.2°
Maximum altitude 08:21:34 78° 23° (NNE) 9,355 ? 31.5°
Drops below altitude 10° 09:02:00 10° 108° (ESE) 11,181 ? 41.4°
Sets 09:09:30 0° 109° (ESE) 12,570 ? 43.2°
